Orbital Elements at Epoch 2459000.5 (2020-May-31.0) TDB
Reference: JPL 35 (heliocentric ecliptic J2000)
Element | Value | Uncertainty (1-sigma) | Units |
e | .1197853200010485 | 4.1289e-08 | |
a | 3.223553450997199 | 1.6812e-08 | au |
q | 2.837419069329015 | 1.3535e-07 | au |
i | 2.211065967656706 | 4.0143e-06 | deg |
node | 125.1100419638247 | 0.00010706 | deg |
peri | 86.95043047831912 | 0.00010847 | deg |
M | 307.9984731235684 | 1.9526e-05 | deg |
tp | 2459305.861538791171 (2021-Apr-01.36153879) | 0.00011542 | TDB |
period | 2113.979349607227 5.79 | 1.6538e-05 4.528e-08 | d yr |
n | .1702949463848298 | 1.3322e-09 | deg/d |
Q | 3.609687832665383 | 1.8826e-08 | au |
|
| | Orbit Determination Parameters
Additional Information
|